Tracking 19226 objects as of 23-Jul-2018
HD Live streaming from Space Station
objects crossing your sky now

SL-12 R/B(2)

Track SL-12 R/B(2) now!


NORAD ID: 23401
Int'l Code: 1994-076F
Perigee: 19,067.7 km
Apogee: 19,134.3 km
Inclination: 64.0 °
Period: 674.3 minutes
Semi major axis: 25471 km
RCS: 2.156 m2 (large)
Launch date: November 20, 1994
Source: Commonwealth of Independent States (former USSR) (CIS)
Launch site: TYURATAM MISSILE AND SPACE COMPLEX (TTMTR)

Note: This is a ROCKET BODY
aabbcc
Your satellite tracking list
Your tracking list is empty




NASA's NSSDC Master Catalog

Two Line Element Set (TLE):
1 23401U 94076F   18203.40909816  .00000035  00000-0  00000+0 0  9994
2 23401  63.9753 167.2276 0013070 306.0960 228.6829  2.13554373184622
Source of the keplerian elements: AFSPC